TDRS 11

Last updated on Aug. 14, 2020, 5:30 a.m. UTC

1 39070U 13004A   20226.15713986  .00000087  00000-0  00000+0 0  9993
2 39070   3.7512 332.9352 0004006  72.8321 158.4797  1.00276361 27588
UTC
Height (km)
Latitude
Longitude
Inclination
Orbital Period
UTC large
Height (km)
Speed (km/s)
/
Latitude / Longitude
Inclination (degrees)
Orbital Period (minutes)
Azimuth
Elevation
Range (km)
Doppler Factor
iOS Compass Heading
iOS Angle

Next 30 passes for location: Hong Kong

Rise time Rise Azimuth (degrees) Set time Set Azimuth (degrees) Duration Max altitude (degrees)

No matching passes for this satellites